Weather History for KRIC - July, 2013

Change the Weather History Date:

Thursday, July 11, 2013

  Actual Average Record
Temperature  
Mean Temperature 78 °F 80 °F  
Max Temperature 83 °F 90 °F 100 °F (1990)
Min Temperature 73 °F 69 °F 53 °F (1963)
Degree Days  
Heating Degree Days 0 0  
Month to date heating degree days 0 0  
Since 1 June heating degree days 0 7  
Since 1 July heating degree days 0 0  
Cooling Degree Days 13 15  
Month to date cooling degree days 178 156  
Year to date cooling degree days 749 632  
Since 1 June cooling degree days 536 471  
Growing Degree Days 27 (Base 50)    
Moisture  
Dew Point 72 °F    
Average Humidity 81    
Maximum Humidity 93    
Minimum Humidity 69    
Precipitation  
Precipitation 0.12 in 0.16 in 3.01 in (1975)
Month to date precipitation 2.93 1.49  
Year to date precipitation 28.31 22.31  
Snow  
Snow 0.00 in 0.00 in 0.00 in (2002)
Month to date snowfall 0.0 0.0  
Since 1 July snowfall 0.0 0.0  
Snow Depth 0.00 in    
Sea Level Pressure  
Sea Level Pressure 29.93 in    
Wind  
Wind Speed 6 mph (SSW)    
Max Wind Speed 14 mph    
Max Gust Speed 25 mph    
Visibility 9 miles    
Events Rain , Thunderstorm    
T = Trace of Precipitation, MM = Missing Value Source: NWS Daily Summary

Daily Weather History Graph

Daily Weather History Graph

Search for Another Location

Airport or City:

Trip Planner

Search our weather history database for the weather conditions in past years. The results will help you decide how hot, cold, wet, or windy it might be!

Date:

Astronomy

Jul. 11, 2013 Rise Set
Actual Time 5:57 AM EDT 8:31 PM EDT
Civil Twilight 5:27 AM EDT 9:02 PM EDT
Nautical Twilight 4:49 AM EDT 9:40 PM EDT
Astronomical Twilight 4:06 AM EDT 10:22 PM EDT
Moon 9:09 AM EDT (7/11) 10:16 PM EDT (7/11)
Length of Visible Light 15h 35m
Length of Day
14h 34m
Waxing Crescent, 10% of the Moon is Illuminated
Jul 11
Waxing Crescent
Jul 15
First Quarter
Jul 22
Full
Jul 29
Last Quarter
Aug 6
New

Hourly Weather History & Observations

Time (EDT) Temp. Heat Index Dew Point Humidity Pressure Visibility Wind Dir Wind Speed Gust Speed Precip Events Conditions
12:54 AM 73.9 °F - 71.1 °F 91% 29.97 in 5.0 mi SW 13.8 mph - 0.22 in Rain , Thunderstorm Thunderstorms and Rain
1:38 AM 73.4 °F - 71.6 °F 94% 29.91 in 10.0 mi WSW 4.6 mph - 0.08 in Rain Light Rain
1:54 AM 73.0 °F - 71.1 °F 93% 29.91 in 10.0 mi South 4.6 mph - 0.09 in Rain Light Rain
2:54 AM 73.0 °F - 71.1 °F 93% 29.91 in 10.0 mi South 8.1 mph - 0.00 in   Overcast
3:54 AM 73.0 °F - 70.0 °F 90% 29.91 in 10.0 mi SSW 9.2 mph - N/A   Overcast
4:37 AM 73.4 °F - 71.6 °F 94% 29.91 in 10.0 mi SSW 6.9 mph - N/A   Overcast
4:54 AM 73.0 °F - 71.1 °F 93% 29.92 in 10.0 mi South 6.9 mph - N/A   Overcast
5:54 AM 73.9 °F - 72.0 °F 93% 29.94 in 10.0 mi South 5.8 mph - N/A   Overcast
6:38 AM 73.4 °F - 71.6 °F 94% 29.93 in 10.0 mi SSW 6.9 mph - N/A   Overcast
6:52 AM 73.4 °F - 71.6 °F 94% 29.93 in 10.0 mi SSW 9.2 mph - N/A   Overcast
6:54 AM 73.9 °F - 72.0 °F 93% 29.94 in 10.0 mi SSW 9.2 mph - N/A   Overcast
7:54 AM 75.0 °F - 72.0 °F 90% 29.94 in 7.0 mi SSW 8.1 mph - 0.01 in Rain Light Rain
8:54 AM 75.9 °F - 73.0 °F 91% 29.94 in 10.0 mi SW 8.1 mph - 0.02 in   Overcast
9:54 AM 77.0 °F - 73.9 °F 90% 29.94 in 9.0 mi WSW 6.9 mph - 0.01 in   Mostly Cloudy
10:08 AM 77.0 °F - 73.4 °F 89% 29.93 in 8.0 mi WSW 8.1 mph - N/A   Overcast
10:16 AM 77.0 °F - 73.4 °F 89% 29.93 in 9.0 mi WSW 8.1 mph - N/A   Overcast
10:54 AM 78.1 °F - 73.0 °F 84% 29.95 in 8.0 mi WSW 4.6 mph - N/A   Overcast
11:15 AM 78.8 °F - 73.4 °F 83% 29.94 in 8.0 mi West 6.9 mph - N/A   Overcast
11:54 AM 78.1 °F - 73.9 °F 87% 29.94 in 8.0 mi West 4.6 mph - N/A   Overcast
12:54 PM 80.1 °F 84.2 °F 73.0 °F 79% 29.94 in 10.0 mi NW 6.9 mph - 0.00 in   Overcast
1:54 PM 81.0 °F 85.2 °F 72.0 °F 74% 29.93 in 10.0 mi North 10.4 mph - N/A   Overcast
2:54 PM 82.0 °F 86.3 °F 71.1 °F 69% 29.92 in 10.0 mi North 5.8 mph - N/A   Overcast
3:54 PM 82.9 °F 87.5 °F 71.1 °F 67% 29.91 in 10.0 mi Variable 6.9 mph - N/A   Overcast
4:54 PM 81.0 °F 84.9 °F 71.1 °F 72% 29.91 in 10.0 mi NE 5.8 mph - N/A   Mostly Cloudy
5:54 PM 81.0 °F 84.9 °F 71.1 °F 72% 29.92 in 10.0 mi East 5.8 mph - N/A   Overcast
6:54 PM 80.1 °F 83.6 °F 71.1 °F 74% 29.91 in 10.0 mi East 4.6 mph - N/A   Overcast
7:54 PM 78.1 °F - 72.0 °F 81% 29.92 in 9.0 mi Calm Calm - N/A   Mostly Cloudy
8:31 PM 78.8 °F - 73.4 °F 83% 29.91 in 9.0 mi ESE 3.5 mph - N/A   Mostly Cloudy
8:42 PM 78.8 °F - 73.4 °F 83% 29.92 in 9.0 mi Calm Calm - N/A   Mostly Cloudy
8:54 PM 77.0 °F - 73.0 °F 88% 29.92 in 9.0 mi SE 3.5 mph - N/A   Mostly Cloudy
9:20 PM 78.8 °F - 73.4 °F 83% 29.91 in 9.0 mi SE 4.6 mph - N/A   Mostly Cloudy
9:46 PM 77.0 °F - 73.4 °F 89% 29.91 in 9.0 mi SW 5.8 mph - N/A   Mostly Cloudy
9:54 PM 77.0 °F - 72.0 °F 84% 29.93 in 9.0 mi South 6.9 mph - N/A   Mostly Cloudy
10:54 PM 75.0 °F - 71.1 °F 87% 29.92 in 10.0 mi SW 5.8 mph - N/A   Overcast
11:54 PM 75.0 °F - 70.0 °F 84% 29.92 in 10.0 mi SW 4.6 mph - 0.00 in Rain Light Rain